This demonstration page uses our WeatherBlox Daily Observations layout. Learn more.

Hourly Observations for March 28, 2015

Temp ( °F °C ) Dew Point ( °F °C ) Humidity (%) Winds ( mph kmh ) Pressure ( in mb ) Visibility ( mi km ) Precip ( " mm )
12:15 am 00:15 Clear 38 3.2 27 -2.6 66 66 S 8 13 30.03 1017 10 16.0934 0 0
12:35 am 00:35 Clear 37 3 27 -3 65 65 S 7 11 30.03 1017 10 16.0934 0 0
12:55 am 00:55 Partly Cloudy 37 3 27 -2.9 66 66 S 7 11 30.03 1017 10 16.0934 0 0
1:15 am 01:15 Partly Cloudy 37 3 27 -2.8 66 66 S 7 11 30.03 1017 10 16.0934 0 0
1:35 am 01:35 Clear 37 2.8 27 -3 66 66 S 3 6 30.03 1017 10 16.0934 0 0
1:55 am 01:55 Clear 37 2.5 27 -3 67 67 S 6 9 30.03 1017 10 16.0934 0 0
2:15 am 02:15 Partly Cloudy 36 2.4 27 -2.9 68 68 S 6 9 30.06 1018 10 16.0934 0 0
2:35 am 02:35 Partly Cloudy 36 2.1 27 -3 69 69 S 5 7 30.06 1018 10 16.0934 0 0
2:55 am 02:55 Clear 37 2.5 27 -2.9 68 68 S 3 6 30.03 1017 10 16.0934 0 0
3:15 am 03:15 Clear 31 -0.3 23 -4.9 71 71 Calm 30.06 1018 10 16.0934 0 0
3:35 am 03:35 Clear 30 -0.9 24 -4.5 77 77 Calm 30.09 1019 10 16.0934 0 0
3:55 am 03:55 Clear 30 -1.3 23 -4.8 77 77 Calm 30.09 1019 10 16.0934 0 0
4:15 am 04:15 Clear 29 -1.8 23 -4.9 80 80 Calm 30.09 1019 10 16.0934 0 0
4:35 am 04:35 Clear 29 -1.4 24 -4.5 80 80 NNE 5 7 30.09 1019 10 16.0934 0 0
4:55 am 04:55 Clear 29 -1.5 24 -4.7 79 79 Calm 30.09 1019 10 16.0934 0 0
5:15 am 05:15 Clear 28 -2.1 23 -5.2 80 80 NE 5 7 30.09 1019 10 16.0934 0 0
5:35 am 05:35 Clear 28 -2.2 24 -4.6 84 84 NE 9 15 30.09 1019 10 16.0934 0 0
5:55 am 05:55 Clear 28 -2.1 24 -4.5 84 84 NE 7 11 30.09 1019 10 16.0934 0 0
6:15 am 06:15 Clear 28 -2 24 -4.6 83 83 ENE 7 11 30.12 1020 10 16.0934 0 0
6:35 am 06:35 Clear 29 -1.9 24 -4.6 82 82 E 6 9 30.12 1020 10 16.0934 0 0
6:55 am 06:55 Clear 29 -1.5 24 -4.3 81 81 E 6 9 30.12 1020 10 16.0934 0 0
7:15 am 07:15 Clear 28 -2 24 -4.7 82 82 E 5 7 30.12 1020 10 16.0934 0 0
7:35 am 07:35 Sunny 28 -2 24 -4.6 83 83 Calm 30.12 1020 10 16.0934 0 0
7:55 am 07:55 Sunny 28 -2.1 23 -4.9 81 81 Calm 30.12 1020 10 16.0934 0 0
8:15 am 08:15 Sunny 30 -1 25 -3.8 82 82 E 6 9 30.15 1021 10 16.0934 0 0
8:35 am 08:35 Sunny 32 -0.2 25 -3.7 78 78 ESE 6 9 30.12 1020 10 16.0934 0 0
8:55 am 08:55 Sunny 33 0.5 26 -3.6 74 74 ESE 7 11 30.12 1020 10 16.0934 0 0
9:15 am 09:15 Sunny 35 1.4 26 -3.3 71 71 E 5 7 30.12 1020 10 16.0934 0 0
9:35 am 09:35 Sunny 37 2.8 27 -2.9 66 66 E 7 11 30.09 1019 10 16.0934 0 0
9:55 am 09:55 Sunny 39 3.9 27 -2.7 62 62 E 8 13 30.09 1019 10 16.0934 0 0
10:15 am 10:15 Sunny 41 5.1 27 -2.6 58 58 ESE 7 11 30.09 1019 10 16.0934 0 0
10:35 am 10:35 Sunny 44 6.6 28 -2 55 55 ESE 6 9 30.06 1018 10 16.0934 0 0
10:55 am 10:55 Sunny 46 8 29 -1.5 51 51 ESE 6 9 30.06 1018 10 16.0934 0 0
11:15 am 11:15 Sunny 49 9.3 30 -0.9 49 49 E 6 9 30.06 1018 10 16.0934 0 0
11:35 am 11:35 Sunny 51 10.5 31 -0.7 46 46 ESE 6 9 30.03 1017 10 16.0934 0 0
11:55 am 11:55 Sunny 53 11.6 31 -0.3 44 44 E 8 13 30.03 1017 10 16.0934 0 0
12:15 pm 12:15 Sunny 55 12.7 32 -0.1 42 42 SE 9 15 30 1016 10 16.0934 0 0
12:35 pm 12:35 Sunny 56 13.5 31 -0.3 39 39 SE 8 13 30 1016 10 16.0934 0 0
12:55 pm 12:55 Sunny 58 14.4 31 -0.5 36 36 SE 8 13 30 1016 10 16.0934 0 0
1:15 pm 13:15 Sunny 59 15.2 31 -0.4 35 35 ESE 10 17 29.97 1015 10 16.0934 0 0
1:35 pm 13:35 Sunny 61 16.1 32 -0.2 33 33 ESE 12 19 29.94 1014 10 16.0934 0 0
1:55 pm 13:55 Sunny 63 17 32 0 32 32 ESE 14 22 29.94 1014 10 16.0934 0 0
2:15 pm 14:15 Sunny 63 17.2 32 -0.1 31 31 SE 14 22 29.94 1014 10 16.0934 0 0
2:35 pm 14:35 Sunny 64 17.7 32 -0.1 30 30 SSE 10 17 29.91 1013 10 16.0934 0 0
2:55 pm 14:55 Sunny 65 18.1 32 0 30 30 SSE 12 19 29.91 1013 10 16.0934 0 0
3:15 pm 15:15 Sunny 65 18.5 32 0.1 29 29 SSE 9 15 29.91 1013 10 16.0934 0 0
3:35 pm 15:35 Sunny 65 18.6 32 0.1 29 29 SSE 13 20 29.91 1013 10 16.0934 0 0
3:55 pm 15:55 Sunny 66 18.9 32 0.2 29 29 SSE 13 20 29.85 1011 10 16.0934 0 0
4:15 pm 16:15 Sunny 67 19.4 33 0.4 28 28 SSE 15 24 29.85 1011 10 16.0934 0 0
4:35 pm 16:35 Sunny 68 19.8 33 0.5 28 28 SSE 14 22 29.85 1011 10 16.0934 0 0
4:55 pm 16:55 Sunny 67 19.7 33 0.5 28 28 S 18 30 29.85 1011 10 16.0934 0 0
5:15 pm 17:15 Sunny 67 19.5 33 0.4 28 28 S 14 22 29.85 1011 10 16.0934 0 0
5:35 pm 17:35 Sunny 67 19.5 33 0.3 28 28 S 17 28 29.83 1010 10 16.0934 0 0
5:55 pm 17:55 Sunny 66 19.1 33 0.5 29 29 SSE 18 30 29.83 1010 10 16.0934 0 0
6:15 pm 18:15 Sunny 66 19 33 0.4 29 29 S 20 31 29.83 1010 10 16.0934 0 0
6:35 pm 18:35 Sunny 66 18.7 33 0.5 30 30 SSE 17 28 29.83 1010 10 16.0934 0 0
6:55 pm 18:55 Sunny 65 18.2 33 0.7 31 31 SSE 20 31 29.83 1010 10 16.0934 0 0
7:15 pm 19:15 Sunny 64 17.6 33 0.8 32 32 SSE 17 28 29.83 1010 10 16.0934 0 0
7:35 pm 19:35 Sunny 62 16.8 33 0.8 34 34 SSE 17 28 29.83 1010 10 16.0934 0 0
7:55 pm 19:55 Sunny 60 15.7 33 0.8 37 37 SSE 15 24 29.8 1009 10 16.0934 0 0
8:15 pm 20:15 Clear 59 14.8 34 1.1 40 40 SSE 17 28 29.8 1009 10 16.0934 0 0
8:35 pm 20:35 Clear 58 14.3 35 1.4 42 42 SSE 18 30 29.83 1010 10 16.0934 0 0
8:55 pm 20:55 Clear 56 13.6 35 1.5 44 44 SSE 17 28 29.83 1010 10 16.0934 0 0
9:15 pm 21:15 Clear 55 13 35 1.6 46 46 SSE 17 28 29.8 1009 10 16.0934 0 0
9:35 pm 21:35 Clear 55 12.6 36 2 49 49 SSE 18 30 29.8 1009 10 16.0934 0 0
9:55 pm 21:55 Clear 55 12.5 36 2.1 49 49 SSE 20 31 29.8 1009 10 16.0934 0 0
10:15 pm 22:15 Clear 54 12.2 36 2.1 50 50 SSE 17 28 29.8 1009 10 16.0934 0 0
10:35 pm 22:35 Clear 54 12.2 36 2.3 51 51 SSE 18 30 29.8 1009 10 16.0934 0 0
10:55 pm 22:55 Clear 55 12.6 37 2.5 50 50 SSE 20 31 29.77 1008 10 16.0934 0 0
11:15 pm 23:15 Clear 55 13 37 2.6 50 50 S 23 37 29.77 1008 10 16.0934 0 0
11:35 pm 23:35 Clear 54 12.3 37 2.6 52 52 S 20 31 29.77 1008 10 16.0934 0 0
11:55 pm 23:55 Clear 53 11.6 37 2.6 54 54 S 17 28 29.77 1008 10 16.0934 0 0

Powered by AerisWeather